Temp
-10 -10 -10 -10 -10 -11 -11 -11 -11 -11 -11 -11 -11 -11 -11 -11 -11 -11 -11 -11 -11 -11 -11 -11 -11 -11 -11 -11 -11 -11 -10 -10 -10 -10 -10 -11 -10 -10 -10 -10 -9 -8 -7
-10 -10 -10 -10 -10 -10 -10 -10 -11 -11 -11 -11 -11 -11 -11 -11 -11 -11 -11 -11 -11 -11 -11 -11 -11 -11 -11 -11 -11 -11 -11 -11 -11 -10 -11 -11 -11 -11 -10 -10 -11 -10 -9
-10 -10 -10 -10 -10 -10 -10 -10 -10 -10 -10 -11 -11 -11 -11 -11 -11 -11 -11 -11 -11 -11 -11 -11 -11 -11 -11 -11 -11 -11 -11 -11 -11 -11 -11 -11 -11 -11 -11 -11 -11 -10 -11
-10 -10 -10 -10 -10 -10 -10 -10 -10 -10 -10 -10 -10 -11 -11 -11 -11 -11 -11 -11 -11 -11 -11 -11 -11 -11 -11 -11 -11 -11 -11 -11 -11 -11 -11 -11 -11 -11 -12 -12 -11 -11 -11
-10 -10 -10 -10 -10 -10 -10 -10 -10 -10 -11 -11 -11 -11 -11 -11 -11 -11 -11 -11 -11 -11 -11 -11 -11 -11 -11 -11 -11 -11 -11 -11 -11 -12 -12 -12 -12 -13 -13 -13 -13 -12 -12
-10 -10 -10 -10 -10 -11 -11 -11 -11 -11 -11 -11 -11 -11 -11 -11 -11 -11 -11 -11 -11 -11 -11 -11 -12 -12 -11 -12 -12 -12 -11 -11 -12 -12 -12 -13 -14 -14 -15 -15 -15 -14 -14
-10 -10 -11 -11 -11 -11 -11 -11 -11 -11 -11 -11 -11 -11 -12 -11 -11 -11 -11 -11 -11 -11 -11 -12 -12 -12 -12 -12 -12 -11 -12 -12 -12 -13 -13 -14 -15 -16 -16 -17 -16 -16 -16
-10 -11 -11 -11 -11 -11 -11 -11 -12 -12 -12 -12 -12 -12 -12 -12 -12 -12 -12 -12 -12 -12 -12 -12 -12 -12 -12 -12 -12 -12 -12 -13 -14 -14 -15 -17 -18 -18 -19 -19 -19 -18 -17
-11 -11 -11 -11 -11 -11 -11 -11 -12 -12 -12 -12 -12 -12 -12 -12 -12 -12 -12 -12 -12 -12 -12 -12 -12 -12 -12 -12 -12 -13 -14 -15 -15 -16 -17 -19 -19 -20 -20 -21 -21 -20 -19
-11 -11 -11 -11 -11 -11 -11 -11 -12 -12 -12 -12 -12 -12 -12 -12 -12 -13 -12 -12 -12 -12 -12 -13 -12 -12 -12 -12 -13 -14 -15 -16 -16 -17 -18 -19 -20 -20 -21 -21 -21 -22 -21
-11 -11 -11 -11 -11 -11 -11 -11 -12 -12 -12 -12 -12 -12 -12 -12 -12 -13 -13 -13 -13 -12 -12 -13 -13 -13 -13 -13 -14 -15 -16 -16 -17 -18 -18 -20 -20 -21 -22 -22 -22 -22 -23
-11 -11 -11 -11 -12 -12 -12 -12 -12 -12 -12 -12 -12 -13 -13 -13 -13 -12 -13 -13 -13 -13 -13 -13 -13 -13 -13 -14 -15 -16 -16 -17 -17 -18 -19 -20 -21 -23 -24 -24 -24 -24 -24
-11 -12 -12 -12 -12 -12 -12 -12 -12 -12 -12 -12 -12 -13 -13 -13 -13 -13 -13 -13 -13 -13 -13 -13 -13 -14 -14 -15 -16 -16 -17 -17 -18 -18 -19 -21 -22 -23 -24 -24 -25 -25 -25
-11 -11 -12 -12 -12 -12 -12 -13 -13 -13 -13 -13 -13 -13 -13 -13 -13 -13 -13 -13 -13 -13 -13 -13 -14 -14 -14 -15 -16 -17 -17 -18 -18 -19 -19 -21 -22 -23 -23 -24 -24 -25 -24
-11 -11 -12 -12 -12 -12 -13 -13 -13 -13 -13 -13 -13 -13 -13 -13 -14 -14 -13 -13 -13 -14 -14 -14 -14 -14 -15 -16 -16 -17 -18 -18 -18 -19 -19 -21 -22 -23 -23 -24 -24 -25 -25
-11 -11 -11 -12 -12 -12 -13 -13 -13 -13 -14 -13 -13 -14 -14 -14 -14 -14 -14 -14 -14 -14 -14 -14 -14 -14 -15 -16 -16 -17 -18 -19 -19 -19 -20 -21 -22 -23 -23 -24 -24 -24 -25
-11 -11 -11 -12 -12 -13 -13 -13 -13 -14 -14 -14 -14 -14 -14 -14 -15 -14 -14 -14 -14 -14 -14 -14 -14 -15 -15 -16 -17 -18 -19 -19 -19 -20 -20 -21 -22 -23 -23 -24 -24 -24 -24
-11 -11 -11 -12 -12 -12 -13 -13 -14 -14 -14 -14 -14 -14 -14 -15 -15 -15 -15 -15 -15 -15 -15 -15 -15 -15 -15 -16 -16 -17 -19 -19 -19 -20 -20 -20 -21 -23 -24 -24 -24 -23 -23
-12 -12 -12 -12 -12 -12 -12 -13 -13 -13 -14 -14 -14 -14 -14 -15 -15 -15 -15 -15 -15 -15 -15 -15 -15 -15 -15 -16 -16 -17 -18 -19 -19 -20 -21 -21 -21 -23 -24 -24 -24 -23 -22
-12 -12 -12 -12 -12 -12 -12 -13 -13 -13 -13 -14 -14 -14 -15 -15 -15 -15 -16 -15 -15 -16 -15 -15 -15 -15 -15 -15 -16 -17 -17 -18 -19 -20 -21 -21 -21 -22 -23 -24 -23 -22 -21
-12 -12 -12 -12 -13 -13 -13 -13 -13 -13 -13 -14 -14 -14 -15 -15 -15 -16 -16 -16 -15 -16 -16 -16 -15 -15 -15 -15 -16 -16 -17 -18 -19 -20 -21 -21 -21 -22 -23 -23 -23 -22 -21
-12 -12 -12 -12 -13 -13 -13 -13 -13 -13 -13 -14 -14 -14 -14 -15 -15 -16 -16 -16 -16 -16 -16 -16 -16 -16 -15 -16 -16 -16 -17 -18 -19 -20 -21 -21 -22 -22 -22 -23 -22 -22 -22
-12 -12 -12 -12 -13 -13 -13 -13 -13 -13 -14 -14 -14 -14 -14 -15 -16 -16 -16 -16 -16 -16 -16 -16 -16 -16 -16 -16 -16 -16 -16 -17 -18 -19 -21 -21 -22 -22 -22 -23 -23 -22 -22
-12 -12 -12 -12 -13 -13 -13 -13 -13 -13 -13 -14 -15 -15 -15 -15 -16 -16 -16 -16 -16 -16 -16 -16 -16 -16 -16 -16 -16 -16 -16 -17 -17 -18 -20 -21 -21 -22 -22 -22 -23 -22 -22
-12 -12 -12 -13 -13 -13 -13 -13 -13 -14 -14 -14 -14 -15 -15 -15 -15 -16 -16 -16 -16 -16 -16 -16 -16 -16 -16 -16 -16 -16 -16 -17 -17 -18 -19 -20 -21 -21 -21 -22 -22 -22 -21
-12 -12 -13 -13 -14 -14 -14 -14 -13 -13 -14 -14 -15 -15 -15 -15 -15 -15 -16 -16 -16 -16 -16 -16 -17 -17 -16 -16 -16 -16 -16 -17 -17 -17 -18 -19 -21 -22 -21 -21 -22 -22 -21
Height
5855 5851 5848 5845 5843 5841 5838 5837 5835 5833 5831 5830 5828 5826 5824 5821 5818 5816 5815 5814 5812 5810 5808 5806 5804 5802 5799 5797 5795 5792 5790 5787 5785 5783 5780 5778 5777 5775 5776 5777 5779 5781 5785
5854 5851 5848 5846 5843 5841 5838 5835 5833 5831 5829 5827 5826 5823 5822 5819 5816 5813 5811 5809 5807 5805 5803 5801 5798 5795 5792 5789 5787 5784 5782 5778 5776 5774 5772 5768 5765 5764 5762 5761 5763 5765 5767
5854 5851 5848 5845 5842 5840 5838 5835 5832 5830 5826 5825 5822 5820 5818 5816 5813 5811 5807 5804 5801 5799 5797 5794 5790 5787 5784 5781 5778 5774 5772 5768 5765 5762 5759 5757 5754 5751 5748 5747 5744 5744 5748
5854 5851 5848 5845 5842 5839 5837 5834 5832 5829 5826 5823 5820 5818 5815 5812 5809 5807 5802 5799 5796 5793 5789 5785 5781 5778 5776 5773 5769 5764 5761 5757 5753 5749 5745 5740 5737 5734 5731 5730 5728 5727 5725
5852 5850 5847 5844 5841 5838 5835 5832 5830 5827 5824 5821 5818 5815 5812 5809 5806 5802 5798 5795 5792 5788 5784 5780 5776 5771 5767 5762 5757 5753 5749 5745 5739 5733 5727 5722 5717 5713 5709 5708 5707 5707 5708
5851 5848 5845 5842 5840 5837 5834 5830 5827 5825 5822 5819 5816 5812 5808 5805 5801 5797 5794 5791 5788 5784 5779 5775 5770 5764 5759 5755 5749 5743 5736 5729 5721 5714 5706 5698 5691 5687 5686 5684 5682 5683 5685
5848 5846 5843 5840 5838 5835 5832 5829 5826 5822 5819 5815 5812 5809 5806 5800 5797 5794 5790 5787 5783 5778 5773 5768 5761 5756 5751 5745 5738 5731 5722 5714 5706 5695 5686 5676 5666 5659 5657 5658 5659 5659 5660
5845 5842 5840 5837 5834 5832 5828 5825 5822 5819 5816 5812 5808 5805 5800 5797 5792 5788 5784 5779 5776 5772 5766 5759 5754 5749 5743 5736 5728 5719 5709 5699 5690 5679 5667 5655 5648 5641 5635 5633 5633 5634 5635
5841 5838 5835 5832 5829 5827 5824 5821 5818 5815 5811 5808 5804 5801 5797 5792 5787 5781 5777 5772 5769 5763 5759 5752 5745 5739 5733 5724 5715 5705 5696 5687 5676 5665 5652 5641 5632 5626 5620 5614 5612 5612 5613
5834 5831 5829 5826 5823 5821 5818 5815 5812 5810 5806 5803 5800 5795 5791 5787 5783 5778 5770 5764 5758 5754 5749 5743 5736 5727 5720 5711 5702 5693 5684 5674 5662 5650 5640 5632 5624 5615 5607 5600 5595 5593 5593
5827 5824 5821 5819 5816 5814 5811 5808 5805 5802 5800 5797 5794 5790 5787 5782 5777 5773 5768 5762 5753 5748 5743 5736 5728 5721 5712 5703 5694 5685 5674 5663 5652 5642 5631 5621 5611 5601 5591 5582 5579 5577 5575
5819 5815 5813 5811 5809 5806 5803 5801 5798 5795 5792 5789 5786 5783 5779 5775 5771 5766 5762 5756 5750 5743 5736 5729 5721 5713 5705 5694 5685 5675 5665 5654 5644 5634 5622 5610 5600 5591 5581 5571 5565 5564 5563
5811 5808 5806 5804 5800 5798 5796 5793 5790 5787 5784 5781 5778 5775 5771 5767 5762 5758 5754 5749 5743 5735 5730 5724 5715 5706 5696 5686 5676 5666 5657 5646 5635 5624 5612 5600 5590 5584 5577 5570 5563 5559 5555
5804 5801 5798 5795 5792 5789 5786 5784 5781 5778 5775 5772 5769 5765 5762 5758 5753 5749 5745 5741 5736 5726 5719 5714 5705 5697 5688 5678 5668 5657 5647 5636 5625 5614 5603 5592 5583 5576 5571 5565 5560 5555 5551
5797 5794 5790 5787 5783 5780 5777 5774 5772 5769 5766 5763 5760 5756 5753 5749 5744 5740 5735 5731 5727 5720 5712 5706 5698 5689 5680 5670 5659 5649 5638 5626 5616 5606 5595 5584 5575 5567 5562 5558 5554 5551 5546
5790 5786 5783 5779 5776 5772 5769 5767 5764 5760 5758 5754 5751 5747 5744 5741 5736 5731 5727 5722 5717 5711 5704 5696 5690 5681 5672 5662 5652 5642 5631 5620 5609 5599 5589 5577 5567 5558 5553 5550 5547 5545 5542
5783 5779 5775 5772 5768 5764 5760 5758 5755 5752 5749 5746 5743 5740 5735 5731 5727 5721 5718 5713 5709 5702 5697 5689 5684 5675 5666 5656 5646 5635 5624 5614 5603 5593 5583 5572 5560 5550 5544 5541 5540 5539 5537
5775 5770 5767 5763 5760 5757 5753 5750 5747 5744 5740 5736 5732 5729 5726 5722 5717 5712 5708 5704 5700 5694 5688 5683 5676 5669 5660 5651 5641 5630 5619 5608 5598 5587 5578 5567 5555 5544 5536 5532 5531 5532 5530
5769 5766 5761 5757 5753 5749 5745 5741 5737 5734 5731 5727 5723 5720 5717 5713 5708 5703 5700 5696 5692 5685 5680 5675 5669 5662 5654 5646 5635 5625 5615 5603 5594 5584 5574 5563 5551 5539 5531 5526 5525 5526 5525
5762 5758 5754 5750 5745 5742 5737 5733 5729 5726 5721 5718 5714 5710 5707 5704 5700 5695 5691 5687 5683 5678 5672 5668 5662 5656 5649 5641 5631 5621 5610 5600 5589 5580 5571 5561 5550 5539 5529 5523 5521 5522 5520
5753 5750 5746 5742 5737 5734 5729 5725 5721 5717 5714 5710 5705 5701 5697 5694 5690 5687 5683 5679 5675 5670 5664 5661 5655 5650 5643 5636 5627 5619 5609 5597 5588 5578 5569 5559 5549 5539 5530 5523 5520 5517 5516
5744 5740 5737 5733 5730 5726 5721 5715 5712 5709 5706 5701 5697 5693 5689 5685 5681 5679 5676 5671 5667 5663 5658 5654 5648 5644 5638 5631 5624 5616 5606 5597 5586 5577 5567 5558 5549 5540 5531 5523 5519 5517 5514
5736 5731 5727 5723 5719 5716 5712 5706 5701 5698 5695 5692 5688 5684 5680 5676 5673 5670 5669 5665 5660 5655 5651 5647 5642 5638 5633 5627 5620 5613 5605 5596 5586 5576 5567 5559 5549 5541 5533 5524 5518 5514 5510
5727 5722 5717 5712 5708 5705 5701 5697 5692 5690 5686 5683 5678 5675 5673 5669 5665 5662 5659 5657 5653 5648 5644 5640 5637 5632 5628 5623 5616 5610 5602 5595 5586 5576 5567 5559 5551 5542 5535 5528 5519 5514 5510
5718 5714 5710 5705 5700 5695 5690 5685 5680 5678 5677 5674 5670 5666 5662 5660 5656 5654 5652 5647 5645 5642 5637 5633 5629 5626 5623 5618 5613 5608 5600 5593 5586 5577 5569 5561 5552 5544 5537 5531 5524 5516 5511
5707 5702 5697 5693 5689 5685 5679 5675 5669 5665 5665 5662 5659 5656 5651 5649 5646 5646 5644 5639 5635 5634 5631 5627 5623 5621 5617 5614 5609 5604 5598 5592 5586 5577 5570 5562 5554 5546 5540 5533 5527 5519 5514
Wind_Speed
18 18 19 20 19 18 17 15 15 14 13 13 14 15 17 18 20 19 19 20 21 22 24 25 25 26 26 28 31 32 33 33 34 34 34 33 40 53 60 60 65 75 79
18 19 19 19 19 19 18 18 17 16 16 16 16 17 18 20 21 23 23 24 25 27 28 29 30 31 31 32 34 36 37 38 40 41 42 42 42 39 44 59 64 67 75
17 17 18 18 19 19 19 19 19 19 19 19 18 19 20 20 21 23 25 27 29 31 33 33 34 35 36 37 38 40 42 44 46 47 48 49 50 51 51 49 51 64 71
18 18 17 17 17 17 18 19 18 19 19 19 20 20 20 21 23 24 25 28 30 32 33 34 34 36 37 37 40 42 45 47 49 53 56 60 61 61 61 60 60 57 60
17 17 17 17 17 18 18 18 19 19 19 19 20 20 20 21 21 23 24 26 28 29 31 33 35 37 39 41 44 46 49 53 57 61 64 67 70 71 73 72 69 68 66
20 19 17 18 19 19 18 18 18 18 18 18 19 20 23 23 23 24 25 26 28 29 30 32 34 37 39 43 45 50 55 58 61 63 65 69 73 74 75 76 75 74 71
22 22 21 19 19 20 20 20 19 20 19 19 19 19 19 23 24 24 26 26 27 30 31 33 36 38 41 45 50 53 55 57 59 62 64 68 70 72 75 73 74 74 74
27 26 25 24 23 23 22 22 22 21 21 22 22 22 24 24 25 27 27 28 28 29 31 35 37 40 42 48 51 52 55 57 58 58 59 60 57 56 60 71 73 76 76
31 30 30 30 28 27 26 26 26 26 25 24 25 25 25 26 28 31 32 32 31 34 36 38 41 43 46 51 52 52 53 53 54 53 52 52 52 51 48 52 59 64 69
34 35 34 32 32 31 31 30 30 29 29 28 27 28 28 29 29 32 36 38 38 38 40 41 43 46 51 54 53 51 51 51 53 52 53 50 49 50 48 48 48 52 56
36 36 37 37 36 34 34 34 33 33 32 32 31 31 30 30 32 33 35 36 40 40 41 43 45 47 50 53 51 47 48 48 50 50 50 50 47 48 51 50 47 47 46
36 38 38 37 37 37 35 35 35 35 34 35 35 35 35 34 35 36 37 39 40 42 42 44 45 48 49 51 47 46 47 47 48 50 49 47 45 38 31 27 30 37 44
33 36 37 36 36 37 37 37 37 36 36 35 36 37 38 38 38 38 39 40 41 43 42 43 45 46 48 47 45 46 46 47 48 48 47 43 40 30 28 25 20 22 25
31 32 33 35 36 37 36 36 37 37 37 36 36 38 39 40 40 40 39 39 40 43 45 43 46 46 46 43 43 46 48 48 47 47 45 41 36 32 28 25 25 27 24
32 31 30 32 33 35 37 37 37 38 38 37 37 36 38 41 42 42 40 39 38 41 42 43 44 46 44 43 43 46 49 50 47 44 45 40 34 31 28 23 20 19 22
31 32 32 32 33 35 37 38 37 39 39 39 38 36 36 40 42 43 42 40 39 41 41 43 43 44 44 43 44 47 49 48 46 42 42 38 35 32 30 29 23 23 25
32 33 33 33 34 35 36 35 36 37 39 40 39 38 37 37 42 43 41 41 40 40 38 41 42 42 42 43 44 46 48 46 44 40 38 38 37 35 30 28 27 24 20
33 33 34 34 34 34 35 34 34 36 37 38 39 39 39 40 41 42 41 41 40 39 38 38 40 40 39 41 43 45 45 44 42 38 36 38 38 36 29 25 22 15 12
38 38 37 37 37 37 36 37 35 36 36 35 37 39 38 38 39 41 39 41 39 38 38 36 37 38 37 38 41 43 41 41 42 36 33 37 38 36 26 19 13 10 7
40 39 39 39 39 38 38 39 39 37 37 36 35 36 39 40 41 44 39 37 38 36 37 34 35 35 36 35 37 37 40 39 40 37 32 34 36 35 26 19 8 10 6
39 40 40 41 41 40 41 41 41 40 39 37 36 37 38 38 38 39 39 35 36 35 35 32 33 34 34 32 33 33 35 38 38 35 32 32 35 36 31 18 8 15 16
39 39 41 42 43 42 43 43 42 42 40 38 37 36 39 37 37 37 36 34 33 37 35 31 31 31 32 29 30 30 32 34 36 36 32 31 32 34 35 22 13 18 19
36 38 40 42 43 43 45 46 45 42 40 39 39 38 36 36 36 35 34 34 32 34 36 31 29 29 31 26 27 26 28 30 34 35 31 29 30 32 34 32 17 15 14
39 41 40 40 41 43 45 49 49 46 44 41 40 39 38 37 37 34 33 33 35 33 35 33 29 27 28 24 23 22 26 27 30 34 34 30 28 29 30 31 23 12 11
41 43 44 42 40 42 46 47 50 50 48 45 44 41 39 39 39 35 31 30 31 33 34 33 31 26 26 24 20 21 22 25 27 29 32 31 29 30 29 29 27 18 6
48 49 48 47 47 47 48 49 50 50 48 49 47 44 44 40 39 37 30 30 28 30 33 32 30 26 24 23 19 19 20 21 24 26 29 31 30 27 28 26 27 27 16
Wind_Direction
6 9 13 14 12 6 0 352 346 341 330 318 310 309 311 315 316 316 315 316 316 315 312 310 307 306 304 305 305 304 302 301 298 296 294 292 276 267 263 257 252 247 245
3 3 7 11 12 10 9 5 356 347 343 335 327 321 316 316 317 316 313 312 313 313 312 312 311 309 309 307 306 304 301 299 297 294 293 290 288 282 275 266 260 253 248
356 358 1 6 8 8 8 6 2 356 351 345 339 333 327 323 319 315 315 315 314 314 314 313 312 312 310 308 308 306 304 302 299 296 293 289 285 284 281 273 270 262 253
345 344 350 354 358 1 3 3 0 356 353 349 344 337 333 329 324 322 322 320 318 317 316 315 314 313 310 308 308 307 305 302 299 297 294 290 286 281 278 275 271 268 264
332 333 336 338 343 347 350 351 350 351 352 349 344 338 335 330 327 323 321 318 315 314 317 317 315 314 313 310 310 310 309 305 300 296 292 287 283 280 278 273 270 267 265
326 323 324 327 331 336 340 343 343 342 341 341 340 339 336 332 327 325 320 319 319 317 317 318 316 314 312 313 314 312 311 309 306 302 296 291 285 279 272 270 270 267 262
318 318 316 315 318 322 326 329 331 334 335 334 333 329 328 325 327 325 325 322 319 323 322 320 317 317 317 317 317 318 314 312 312 309 303 295 288 281 274 265 262 262 261
317 314 311 310 309 311 314 316 319 322 324 326 328 328 325 323 320 317 320 328 328 330 326 320 320 319 320 319 321 321 320 322 319 316 313 305 300 296 282 268 262 259 256
314 314 314 311 308 306 306 309 311 314 317 319 321 323 325 323 323 320 319 320 325 327 328 327 324 322 323 324 326 326 326 324 324 328 324 314 309 301 295 281 270 268 265
303 306 307 308 308 306 304 302 303 305 308 310 313 316 320 321 323 325 323 323 325 325 325 327 325 325 327 328 328 328 328 328 330 331 325 317 311 304 297 288 278 267 262
294 296 297 301 302 303 303 302 301 299 300 301 304 306 309 313 316 319 322 325 322 321 323 326 326 324 328 329 328 329 330 330 330 330 324 313 311 304 297 287 275 269 265
294 292 291 293 295 296 298 298 298 298 298 298 298 300 302 305 308 313 317 321 323 322 320 324 324 325 329 329 328 330 330 330 330 331 328 317 313 309 314 318 288 275 269
296 294 295 294 293 294 295 296 295 296 296 296 296 297 298 300 303 307 311 317 320 320 320 323 323 326 331 329 328 329 328 328 328 333 332 323 313 299 312 318 310 303 285
303 300 300 299 294 293 292 291 292 293 294 295 297 298 298 298 299 302 306 310 316 318 320 322 324 327 331 328 326 327 329 330 329 332 337 327 315 291 296 303 307 308 297
306 303 299 298 296 293 292 291 291 292 293 294 295 297 300 301 301 301 303 307 312 314 316 319 324 326 332 329 330 330 330 332 332 332 342 332 315 297 282 289 307 310 311
305 305 303 300 300 300 298 297 294 293 294 294 295 296 302 304 304 301 303 304 309 311 316 317 324 327 331 332 333 333 332 333 334 333 344 338 325 303 284 275 284 295 310
302 304 304 303 301 301 302 302 299 297 298 298 297 296 297 299 300 301 301 303 307 309 313 316 324 327 329 332 335 335 334 337 337 337 345 345 331 318 303 287 278 282 291
296 298 299 300 301 302 303 304 304 302 301 300 297 295 297 304 303 301 302 303 306 308 311 316 323 326 328 331 336 338 338 339 341 339 344 351 343 330 320 302 289 271 300
296 296 300 302 301 301 303 304 303 303 302 302 303 300 297 302 306 306 304 305 306 307 309 314 322 325 328 331 337 342 342 341 342 342 343 352 353 342 334 318 296 232 303
300 297 298 298 299 300 299 299 303 304 304 302 300 298 298 299 301 304 301 303 306 306 306 313 321 325 329 333 340 345 346 347 345 346 344 350 359 354 346 336 282 211 264
301 300 297 296 297 297 298 298 299 301 305 305 302 301 300 301 301 311 308 304 305 306 305 313 318 324 328 332 339 348 351 351 351 349 349 353 359 3 357 350 274 223 245
302 299 298 299 298 296 296 295 296 298 301 304 303 303 302 304 303 310 313 311 305 307 305 312 315 323 327 331 337 348 356 359 356 356 357 359 0 5 7 1 307 267 261
306 304 300 297 298 297 294 293 292 293 297 299 300 301 302 303 304 306 310 315 316 308 307 310 313 320 325 330 335 347 358 5 8 3 3 3 3 4 9 9 358 295 256
302 302 301 298 296 295 294 295 294 293 293 294 295 298 300 299 300 305 306 311 311 312 309 308 310 316 322 327 333 345 357 5 10 9 9 8 8 4 9 13 11 346 291
303 306 305 302 300 298 291 290 290 293 294 294 294 294 294 296 298 301 308 304 303 309 306 306 308 309 318 324 325 337 353 0 5 8 10 8 10 14 16 18 22 18 271
296 297 298 300 299 295 292 290 288 285 291 293 292 291 290 288 293 298 300 304 304 301 306 303 303 305 310 320 317 328 343 359 4 10 11 12 10 11 17 22 23 27 16